Weather History for Wautoma, WI

Change the Weather History Date:

Monday, December 10, 2012

  Actual Average (KPCZ) Record (KPCZ)
Temperature  
Mean Temperature 26 °F -  
Max Temperature 30 °F 31 °F 54 °F (1990)
Min Temperature 22 °F 16 °F -13 °F (1978)
Degree Days  
Heating Degree Days 39    
Moisture  
Dew Point 24 °F    
Average Humidity 90    
Maximum Humidity 100    
Minimum Humidity 74    
Precipitation  
Precipitation 0.00 in - - ()
Sea Level Pressure  
Sea Level Pressure 29.83 in    
Wind  
Wind Speed 6 mph (NNW)    
Max Wind Speed 12 mph    
Max Gust Speed -    
Visibility 9 miles    
Events Rain , Snow    
Averages and records for this station are not official NWS values.
T = Trace of Precipitation, MM = Missing Value Source: NWS Daily Summary

Daily Weather History Graph

Daily Weather History Graph

Search for Another Location

Airport:

Trip Planner

Search our weather history database for the weather conditions in past years. The results will help you decide how hot, cold, wet, or windy it might be!

Date:

Astronomy

Dec. 10, 2012 Rise Set
Actual Time 7:21 AM CST 4:18 PM CST
Civil Twilight 6:48 AM CST 4:51 PM CST
Nautical Twilight 6:12 AM CST 5:28 PM CST
Astronomical Twilight 5:37 AM CST 6:03 PM CST
Moon 4:00 AM CST (12/10) 2:11 PM CST (12/10)
Length of Visible Light 10h 03m
Length of Day
8h 57m
Waning Crescent, 10% of the Moon is Illuminated
Dec 10
Waning Crescent
Dec 13
New
Dec 19
First Quarter
Dec 28
Full
Jan 4
Last Quarter

Hourly Weather History & Observations

Time (CST) Temp. Windchill Dew Point Humidity Pressure Visibility Wind Dir Wind Speed Gust Speed Precip Events Conditions
12:56 AM 30.0 °F 24.1 °F 30.0 °F 100% 29.73 in 9.0 mi NE 5.8 mph - 0.00 in   Overcast
1:23 AM 30.2 °F 24.3 °F 30.2 °F 100% 29.71 in 8.0 mi NNE 5.8 mph - 0.00 in   Overcast
1:56 AM 30.0 °F 25.2 °F 30.0 °F 100% 29.74 in 3.0 mi NE 4.6 mph - 0.00 in Rain Light Freezing Rain
2:07 AM 30.2 °F 20.8 °F 30.2 °F 100% 29.72 in 2.5 mi NNE 11.5 mph - 0.00 in Rain Light Freezing Rain
2:18 AM 28.4 °F 20.4 °F 28.4 °F 100% 29.72 in 3.0 mi NNE 8.1 mph - 0.00 in Rain Light Freezing Rain
2:56 AM 28.0 °F 20.8 °F 28.0 °F 100% 29.75 in 9.0 mi NNE 6.9 mph - 0.00 in   Overcast
3:25 AM 26.6 °F 20.0 °F 26.6 °F 100% 29.73 in 10.0 mi NNE 5.8 mph - N/A   Overcast
3:41 AM 26.6 °F 20.0 °F 26.6 °F 100% 29.73 in 8.0 mi North 5.8 mph - 0.00 in   Overcast
3:56 AM 27.1 °F 19.7 °F 26.1 °F 96% 29.75 in 7.0 mi NNE 6.9 mph - 0.00 in   Overcast
4:56 AM 27.1 °F 20.7 °F 25.2 °F 92% 29.77 in 10.0 mi North 5.8 mph - 0.00 in   Overcast
5:13 AM 26.6 °F 20.0 °F 24.8 °F 93% 29.75 in 10.0 mi North 5.8 mph - 0.00 in   Overcast
5:31 AM 24.8 °F 17.9 °F 24.8 °F 100% 29.76 in 10.0 mi North 5.8 mph - 0.00 in   Mostly Cloudy
5:56 AM 24.1 °F 18.2 °F 24.1 °F 100% 29.79 in 10.0 mi North 4.6 mph - 0.00 in   Mostly Cloudy
6:56 AM 22.1 °F 14.7 °F 22.1 °F 100% 29.81 in 10.0 mi North 5.8 mph - N/A   Partly Cloudy
7:56 AM 22.1 °F 14.7 °F 20.1 °F 92% 29.83 in 10.0 mi NNW 5.8 mph - N/A   Clear
8:56 AM 23.0 °F - 20.1 °F 89% 29.84 in 10.0 mi Calm Calm - N/A   Clear
9:56 AM 25.2 °F 17.3 °F 21.0 °F 84% 29.86 in 10.0 mi North 6.9 mph - N/A   Clear
10:56 AM 28.0 °F 21.7 °F 22.1 °F 78% 29.85 in 10.0 mi NNW 5.8 mph - N/A   Clear
11:56 AM 29.1 °F 20.6 °F 22.1 °F 75% 29.84 in 10.0 mi NNW 9.2 mph - N/A   Clear
12:56 PM 29.1 °F 21.3 °F 22.1 °F 75% 29.85 in 10.0 mi NW 8.1 mph - N/A   Scattered Clouds
1:04 PM 28.4 °F 19.1 °F 21.2 °F 74% 29.82 in 10.0 mi NNW 10.4 mph - N/A   Mostly Cloudy
1:14 PM 28.4 °F 19.7 °F 21.2 °F 74% 29.82 in 10.0 mi NNW 9.2 mph - N/A   Scattered Clouds
1:35 PM 30.2 °F 22.6 °F 23.0 °F 75% 29.82 in 10.0 mi NW 8.1 mph - N/A   Mostly Cloudy
1:56 PM 29.1 °F 21.3 °F 22.1 °F 75% 29.84 in 10.0 mi North 8.1 mph - N/A   Overcast
2:56 PM 28.0 °F 20.0 °F 21.0 °F 75% 29.86 in 10.0 mi NNW 8.1 mph - N/A   Mostly Cloudy
3:03 PM 28.4 °F 21.2 °F 21.2 °F 74% 29.83 in 10.0 mi NNW 6.9 mph - N/A   Overcast
3:18 PM 28.4 °F 20.4 °F 21.2 °F 74% 29.84 in 10.0 mi NNW 8.1 mph - N/A   Overcast
3:56 PM 27.1 °F 18.2 °F 22.1 °F 81% 29.88 in 10.0 mi NNW 9.2 mph - N/A   Overcast
4:56 PM 26.1 °F - 22.1 °F 85% 29.90 in 10.0 mi Calm Calm - N/A   Overcast
5:56 PM 26.1 °F - 22.1 °F 85% 29.91 in 10.0 mi Calm Calm - N/A   Overcast
6:56 PM 25.2 °F - 24.1 °F 96% 29.92 in 10.0 mi Calm Calm - N/A   Overcast
7:34 PM 26.6 °F 21.2 °F 24.8 °F 93% 29.91 in 10.0 mi WNW 4.6 mph - N/A   Overcast
7:56 PM 26.1 °F 19.4 °F 23.0 °F 88% 29.94 in 10.0 mi WNW 5.8 mph - 0.00 in   Overcast
8:32 PM 24.8 °F 17.9 °F 23.0 °F 93% 29.91 in 10.0 mi West 5.8 mph - 0.00 in   Overcast
8:56 PM 25.2 °F - 23.0 °F 91% 29.94 in 10.0 mi Calm Calm - 0.00 in   Overcast
9:14 PM 24.8 °F - 23.0 °F 93% 29.91 in 10.0 mi Calm Calm - 0.00 in   Overcast
9:56 PM 25.2 °F - 24.1 °F 96% 29.93 in 10.0 mi Calm Calm - 0.00 in   Overcast
10:56 PM 25.2 °F 20.9 °F 24.1 °F 96% 29.94 in 8.0 mi WSW 3.5 mph - 0.00 in   Overcast
11:17 PM 24.8 °F 20.5 °F 23.0 °F 93% 29.91 in 9.0 mi WSW 3.5 mph - 0.00 in   Overcast
11:36 PM 24.8 °F - 23.0 °F 93% 29.90 in 6.0 mi Calm Calm - 0.00 in Snow Light Snow
11:56 PM 24.1 °F - 23.0 °F 96% 29.93 in 6.0 mi Calm Calm - 0.00 in Snow Light Snow